Torna al catalogo

STARLINK-34285

AttivoComunicazioniVLEO
NORAD 65101·PAYLOAD·🇺🇸 United States

Lanciato Aug 4, 2025 da Cape Canaveral Space Force Station

Loading…

Prossimi Passaggi (prossime 24 ore)

TLE

AggiornatoSource: CelesTrak SupGP

Epoca: Sep 15, 2026, 04:01 UTC

1 65101C 25167Z   26258.16784722 -.00060642  00000+0 -17918-2 0  2589
2 65101  53.1585 222.7518 0001417  87.0359 263.2953 15.34419250    19

Traccia STARLINK-34285 in tempo reale con AllMySat

Download on the App Store